Airfield :
LOGIN :

Register | Disclaimer

   EN    FR    IT 

 










Legend :    VFR   Marginal VFR   IFR   Intensive IFR   Very Intensive IFR
Visi :
Ceiling :
>= 8 km
>= 3000ft
5 to 8 km
1000 to 3000 ft
1500m to 5 km
500 to 1000 ft
800 to 1500m
200 to 500 ft
< 800m
< 200 ft
Symbols :   Thunderstorms  Fog  Heavy snow  Heavy precipitations  Wind > 20 kt
SIGMETs :     Misc.  Thunderstorms  Icing  Turbulence  Mountain Waves  Volcanic Ashes







- Airport Elevation : 106 ft
- IATA code : XDA
- Download approach charts


LFBY - Dax Seyresse

CURRENT METAR :
  • 262330Z AUTO 23003KT 9999 // ////// 20/18 Q1011

EXPIRED METARs :
  • 262300Z AUTO 23004KT 200V260 9999 // ////// 20/19 Q1011
  • 262230Z AUTO 23005KT 9999 // ////// 20/19 Q1011
  • 262200Z AUTO 24006KT 9999 // ////// 21/19 Q1011
  • 262130Z AUTO 23008KT 210V270 9999 // ////// 21/19 Q1011
  • 262100Z AUTO 23007KT 200V260 9999 // SCT014 BKN022 OVC028 21/19 Q1011

Expired Forecast.
No reported NOTAMs for that airfield.



MET'MAP, your aeronautical weather chart ! - Copyright ORBIFLY December 2007 - Disclaimer

ORBIFLY MET'MAP TEAM :

Programming & Development : Alexandra Zaïnal
Concept & Development : Baudouin d'Aumeries
Co-Development & Prog : Marc-Olivier Méhu
Technical & hardware support : Manuel Goepfert

Contact : metmap@orbifly.com




SOURCES & CREDITS :

   NOAA